Location: ????
(30.1475°N, 31.1342°E)
Time: 23:03:03
(UTC+00:00)

Meteor 1-14 Rocket - Visible Passes

Search period start: 28 March 2023 00:00
Search period end: 07 April 2023 00:00
Orbit: 833 x 919 km, 81.3° (Epoch: 28 March)

Date Brightness Start Highest point End Pass type
(mag) Time Alt. Az. Time Alt. Az. Time Alt. Az.
28 Mar 4.1 02:14:24 10° NNW 02:19:56 75° W 02:25:33 10° S visible
29 Mar 7.2 00:30:35 10° ENE 00:31:38 10° ENE 00:32:40 10° E visible
29 Mar 4.1 02:10:00 10° NNW 02:15:31 70° W 02:21:06 10° S visible
30 Mar 7.1 00:25:24 10° NE 00:27:15 12° ENE 00:29:05 10° E visible
30 Mar 4.1 02:05:35 10° NNW 02:11:05 64° W 02:16:39 10° S visible
31 Mar 7.0 00:20:30 10° NE 00:22:52 13° ENE 00:25:14 10° E visible
31 Mar 4.1 02:01:11 10° NNW 02:06:38 60° W 02:12:10 10° S visible
01 Apr 6.9 00:15:42 10° NE 00:18:29 14° ENE 00:21:16 10° ESE visible
01 Apr 4.2 01:56:47 10° NNW 02:02:12 55° W 02:03:41 43° SW visible
02 Apr 6.7 00:10:58 10° NE 00:14:05 15° ENE 00:15:01 14° E visible
02 Apr 4.3 01:52:23 10° NNW 01:57:27 50° W 01:57:27 50° W visible
03 Apr 6.7 00:06:17 10° NE 00:09:24 16° ENE 00:09:24 16° ENE visible
03 Apr 4.8 01:47:59 10° NNW 01:51:52 38° NW 01:51:52 38° NW visible
04 Apr 6.7 00:01:38 10° NNE 00:04:05 17° ENE 00:04:05 17° ENE visible
04 Apr 5.3 01:43:37 10° NNW 01:46:35 29° NW 01:46:35 29° NW visible
04 Apr 6.7 23:57:00 10° NNE 23:58:59 16° NE 23:58:59 16° NE visible
05 Apr 5.7 01:39:14 10° NNW 01:41:29 23° NW 01:41:29 23° NW visible
05 Apr 6.8 23:52:24 10° NNE 23:54:00 16° NE 23:54:00 16° NE visible
06 Apr 5.9 01:34:52 10° NNW 01:36:30 19° NW 01:36:30 19° NW visible
06 Apr 6.8 23:47:48 10° NNE 23:49:07 15° NE 23:49:07 15° NE visible
